EVA562 RKSI-RJTT

Flight info

Callsign EVA562
Flight time 2h 7m
Altitude 37000
Route EGOBA2A EGOBA Y697 LANAT Y71 XAC
Aircraft B77W/H-SDE1E2E3FGHIJ2J3J4J5M1RWXY/LB1D1

Departure

Time 2026-05-01 10:26
Airport Incheon International Airport (RKSI)

Arrival

Time 2026-05-01 12:34
Airport Tokyo Haneda International Airport (RJTT)
Time Latitude Longitude Altitude Speed Heading
2026-05-01 09:56 37.45260 126.45253 37 ft 0 kts 260°
2026-05-01 10:06 37.45261 126.45253 37 ft 0 kts 260°
2026-05-01 10:11 37.45263 126.45270 35 ft 2 kts 259°
2026-05-01 10:11 37.45266 126.45291 35 ft 2 kts 259°
2026-05-01 10:12 37.45270 126.45311 33 ft 2 kts 257°
2026-05-01 10:12 37.45274 126.45330 34 ft 2 kts 251°
2026-05-01 10:12 37.45281 126.45369 34 ft 2 kts 327°
2026-05-01 10:13 37.45265 126.45373 33 ft 2 kts 345°
2026-05-01 10:13 37.45258 126.45376 35 ft 0 kts 321°
2026-05-01 10:13 37.45257 126.45376 35 ft 0 kts 321°
2026-05-01 10:20 37.45259 126.45375 35 ft 1 kts 324°
2026-05-01 10:20 37.45263 126.45375 34 ft 0 kts 344°
2026-05-01 10:21 37.45267 126.45376 33 ft 1 kts
2026-05-01 10:21 37.45276 126.45393 33 ft 2 kts 74°
2026-05-01 10:21 37.45271 126.45418 37 ft 4 kts 110°
2026-05-01 10:22 37.45238 126.45490 37 ft 8 kts 116°
2026-05-01 10:22 37.45217 126.45631 37 ft 5 kts 92°
2026-05-01 10:23 37.45220 126.45677 37 ft 5 kts 81°
2026-05-01 10:23 37.45259 126.45764 37 ft 6 kts 54°
2026-05-01 10:23 37.45291 126.45821 37 ft 10 kts 54°
2026-05-01 10:24 37.45382 126.45985 36 ft 11 kts 56°
2026-05-01 10:24 37.45516 126.46011 35 ft 11 kts 328°
2026-05-01 10:25 37.45595 126.45939 35 ft 5 kts 324°
2026-05-01 10:25 37.45597 126.45938 35 ft 0 kts 324°
2026-05-01 10:26 37.45605 126.45930 35 ft 11 kts 324°
2026-05-01 10:26 37.45889 126.45680 37 ft 92 kts 321°
2026-05-01 10:26 37.47764 126.43746 912 ft 219 kts 320°
2026-05-01 10:27 37.50214 126.41342 4063 ft 228 kts 321°
2026-05-01 10:27 37.52974 126.39120 5887 ft 248 kts 336°
2026-05-01 10:28 37.54557 126.38247 6880 ft 249 kts 334°
2026-05-01 10:28 37.57400 126.35498 8419 ft 270 kts 301°
2026-05-01 10:28 37.57926 126.33374 9253 ft 278 kts 276°
2026-05-01 10:29 37.57962 126.28412 10905 ft 297 kts 272°
2026-05-01 10:29 37.57962 126.25674 11188 ft 325 kts 269°
2026-05-01 10:30 37.55903 126.20247 11966 ft 379 kts 219°
2026-05-01 10:30 37.50926 126.17747 13783 ft 394 kts 198°
2026-05-01 10:31 37.45660 126.15501 14015 ft 401 kts 197°
2026-05-01 10:31 37.40098 126.14690 14018 ft 402 kts 182°
2026-05-01 10:32 37.34515 126.14619 14024 ft 401 kts 181°
2026-05-01 10:32 37.32322 126.14606 14017 ft 401 kts 181°
2026-05-01 10:32 37.26642 126.14580 14025 ft 401 kts 181°
2026-05-01 10:33 37.21056 126.14552 13457 ft 398 kts 181°
2026-05-01 10:33 37.15668 126.14512 13042 ft 381 kts 181°
2026-05-01 10:34 37.13021 126.14490 13040 ft 381 kts 181°
2026-05-01 10:34 37.10365 126.14465 13043 ft 382 kts 181°
2026-05-01 10:34 37.07703 126.14439 13045 ft 382 kts 181°
2026-05-01 10:35 37.02509 126.15672 13076 ft 394 kts 146°
2026-05-01 10:35 37.00615 126.18125 13773 ft 400 kts 120°
2026-05-01 10:35 36.99690 126.21391 14768 ft 401 kts 97°
2026-05-01 10:35 36.99638 126.24849 14887 ft 411 kts 82°
2026-05-01 10:36 37.01216 126.31595 14920 ft 404 kts 63°
2026-05-01 10:36 37.02543 126.34689 14918 ft 402 kts 59°
2026-05-01 10:36 37.03955 126.37655 14920 ft 402 kts 58°
2026-05-01 10:37 37.05411 126.40653 15130 ft 408 kts 58°
2026-05-01 10:37 37.08362 126.46876 16846 ft 420 kts 59°
2026-05-01 10:37 37.09822 126.50047 17854 ft 423 kts 60°
2026-05-01 10:38 37.11295 126.53293 18609 ft 431 kts 60°
2026-05-01 10:38 37.12773 126.56578 19281 ft 439 kts 60°
2026-05-01 10:38 37.14286 126.59958 20000 ft 445 kts 61°
2026-05-01 10:38 37.15805 126.63360 20727 ft 451 kts 61°
2026-05-01 10:39 37.17348 126.66821 21445 ft 457 kts 61°
2026-05-01 10:39 37.18377 126.69133 21900 ft 461 kts 61°
2026-05-01 10:39 37.19950 126.72668 22614 ft 467 kts 61°
2026-05-01 10:39 37.21541 126.76246 23284 ft 473 kts 61°
2026-05-01 10:40 37.23152 126.79869 23869 ft 479 kts 61°
2026-05-01 10:40 37.24783 126.83537 24387 ft 484 kts 61°
2026-05-01 10:40 37.26439 126.87262 24951 ft 489 kts 61°
2026-05-01 10:40 37.28100 126.91004 25482 ft 494 kts 61°
2026-05-01 10:41 37.29781 126.94801 25994 ft 500 kts 61°
2026-05-01 10:41 37.31479 126.98641 26496 ft 505 kts 61°
2026-05-01 10:41 37.34925 127.06447 27445 ft 515 kts 61°
2026-05-01 10:42 37.36664 127.10394 27885 ft 520 kts 61°
2026-05-01 10:42 37.38428 127.14401 28328 ft 525 kts 61°
2026-05-01 10:42 37.40203 127.18441 28767 ft 529 kts 61°
2026-05-01 10:42 37.41983 127.22498 29122 ft 534 kts 61°
2026-05-01 10:43 37.43795 127.26629 29441 ft 539 kts 60°
2026-05-01 10:43 37.45610 127.30772 29884 ft 541 kts 61°
2026-05-01 10:43 37.47305 127.34992 30363 ft 540 kts 66°
2026-05-01 10:43 37.48683 127.39375 30851 ft 538 kts 71°
2026-05-01 10:44 37.49762 127.43770 31298 ft 537 kts 77°
2026-05-01 10:44 37.50523 127.48279 31693 ft 537 kts 81°
2026-05-01 10:44 37.51203 127.52861 32107 ft 537 kts 81°
2026-05-01 10:44 37.51893 127.57527 32575 ft 536 kts 81°
2026-05-01 10:45 37.52610 127.62145 33039 ft 536 kts 80°
2026-05-01 10:45 37.53335 127.66680 33442 ft 535 kts 80°
2026-05-01 10:45 37.54080 127.71325 33873 ft 535 kts 80°
2026-05-01 10:45 37.54810 127.75910 34244 ft 534 kts 80°
2026-05-01 10:46 37.55538 127.80512 34574 ft 534 kts 80°
2026-05-01 10:46 37.56251 127.85045 34895 ft 535 kts 80°
2026-05-01 10:46 37.56983 127.89707 35235 ft 534 kts 81°
2026-05-01 10:46 37.57691 127.94231 35581 ft 534 kts 81°
2026-05-01 10:47 37.58410 127.98832 35892 ft 534 kts 81°
2026-05-01 10:47 37.59127 128.03432 36184 ft 534 kts 81°
2026-05-01 10:47 37.59844 128.08037 36508 ft 534 kts 81°
2026-05-01 10:47 37.60556 128.12626 36784 ft 535 kts 81°
2026-05-01 10:48 37.61273 128.17261 36804 ft 539 kts 81°
2026-05-01 10:48 37.62703 128.26545 36813 ft 536 kts 81°
2026-05-01 10:49 37.64108 128.35712 36812 ft 531 kts 82°
2026-05-01 10:49 37.65501 128.44865 36807 ft 530 kts 82°
2026-05-01 10:50 37.66878 128.53947 36802 ft 530 kts 82°
2026-05-01 10:50 37.68255 128.63099 36798 ft 531 kts 82°
2026-05-01 10:51 37.69150 128.72309 36776 ft 523 kts 98°
2026-05-01 10:51 37.68605 128.76787 36789 ft 516 kts 110°
2026-05-01 10:51 37.67456 128.81055 36774 ft 510 kts 121°
2026-05-01 10:52 37.63871 128.88637 36785 ft 504 kts 129°
2026-05-01 10:52 37.60134 128.96161 36779 ft 506 kts 129°
2026-05-01 10:53 37.56486 129.03701 36769 ft 500 kts 128°
2026-05-01 10:53 37.52896 129.11177 36776 ft 498 kts 129°
2026-05-01 10:54 37.49305 129.18627 36775 ft 497 kts 129°
2026-05-01 10:54 37.45709 129.26065 36780 ft 497 kts 129°
2026-05-01 10:55 37.42128 129.33451 36780 ft 497 kts 129°
2026-05-01 10:55 37.38527 129.40866 36790 ft 498 kts 129°
2026-05-01 10:56 37.34904 129.48311 36780 ft 499 kts 130°
2026-05-01 10:56 37.31289 129.55728 36795 ft 499 kts 130°
2026-05-01 10:57 37.27652 129.63174 36796 ft 499 kts 130°
2026-05-01 10:57 37.24599 129.69412 36795 ft 498 kts 130°
2026-05-01 10:58 37.20949 129.76855 36798 ft 498 kts 131°
2026-05-01 10:58 37.17372 129.84123 36802 ft 497 kts 131°
2026-05-01 10:59 37.13739 129.91481 36804 ft 496 kts 131°
2026-05-01 10:59 37.10108 129.98825 36799 ft 495 kts 131°
2026-05-01 11:00 37.06571 130.05964 36798 ft 495 kts 132°
2026-05-01 11:00 37.02942 130.13285 36799 ft 494 kts 132°
2026-05-01 11:01 36.99357 130.20491 36823 ft 497 kts 133°
2026-05-01 11:01 36.95685 130.27839 36812 ft 500 kts 132°
2026-05-01 11:02 36.91985 130.35243 36811 ft 502 kts 133°
2026-05-01 11:02 36.88306 130.42593 36805 ft 502 kts 133°
2026-05-01 11:03 36.84637 130.49908 36804 ft 503 kts 133°
2026-05-01 11:03 36.80924 130.57292 36804 ft 503 kts 133°
2026-05-01 11:04 36.77195 130.64695 36810 ft 503 kts 133°
2026-05-01 11:04 36.73460 130.72083 36807 ft 504 kts 133°
2026-05-01 11:05 36.69715 130.79476 36810 ft 505 kts 134°
2026-05-01 11:05 36.65951 130.86895 36813 ft 506 kts 134°
2026-05-01 11:06 36.62168 130.94320 36942 ft 515 kts 121°
2026-05-01 11:06 36.58271 131.01980 36894 ft 532 kts 121°
2026-05-01 11:07 36.54250 131.09874 36848 ft 548 kts 121°
2026-05-01 11:07 36.52219 131.13848 36836 ft 555 kts 121°
2026-05-01 11:07 36.48029 131.22024 36836 ft 566 kts 121°
2026-05-01 11:08 36.43789 131.30278 36821 ft 566 kts 121°
2026-05-01 11:09 36.37624 131.42774 36821 ft 563 kts 115°
2026-05-01 11:09 36.34642 131.51693 36829 ft 557 kts 106°
2026-05-01 11:10 36.30874 131.65225 36827 ft 555 kts 106°
2026-05-01 11:10 36.28318 131.74229 36822 ft 554 kts 107°
2026-05-01 11:11 36.25726 131.83204 36828 ft 553 kts 107°
2026-05-01 11:11 36.23119 131.92177 36829 ft 552 kts 107°
2026-05-01 11:12 36.20517 132.01116 36832 ft 552 kts 107°
2026-05-01 11:12 36.17911 132.10048 36827 ft 551 kts 107°
2026-05-01 11:13 36.15302 132.18968 36834 ft 551 kts 107°
2026-05-01 11:13 36.12765 132.27610 36829 ft 551 kts 107°
2026-05-01 11:14 36.10145 132.36509 36829 ft 550 kts 107°
2026-05-01 11:14 36.07527 132.45373 36824 ft 549 kts 107°
2026-05-01 11:15 36.04895 132.54254 36824 ft 548 kts 108°
2026-05-01 11:15 36.02269 132.63088 36808 ft 548 kts 108°
2026-05-01 11:16 35.99636 132.71919 36807 ft 547 kts 108°
2026-05-01 11:16 35.97001 132.80726 36816 ft 546 kts 108°
2026-05-01 11:17 35.94406 132.89378 36808 ft 546 kts 108°
2026-05-01 11:17 35.91772 132.98130 36804 ft 545 kts 108°
2026-05-01 11:18 35.89108 133.06954 36812 ft 545 kts 108°
2026-05-01 11:18 35.86473 133.15655 36804 ft 545 kts 108°
2026-05-01 11:19 35.83816 133.24402 36800 ft 545 kts 109°
2026-05-01 11:19 35.81146 133.33166 36801 ft 545 kts 109°
2026-05-01 11:20 35.78475 133.41904 36796 ft 545 kts 109°
2026-05-01 11:20 35.75801 133.50629 36791 ft 545 kts 109°
2026-05-01 11:21 35.73120 133.59350 36783 ft 544 kts 109°
2026-05-01 11:21 35.70433 133.68061 36782 ft 543 kts 109°
2026-05-01 11:22 35.67751 133.76733 36774 ft 542 kts 109°
2026-05-01 11:22 35.65067 133.85383 36757 ft 541 kts 110°
2026-05-01 11:23 35.62830 133.92572 36743 ft 540 kts 110°
2026-05-01 11:23 35.60137 134.01207 36728 ft 540 kts 110°
2026-05-01 11:24 35.57447 134.09804 36723 ft 539 kts 110°
2026-05-01 11:25 35.53402 134.22687 36724 ft 539 kts 110°
2026-05-01 11:25 35.49367 134.35483 36727 ft 539 kts 110°
2026-05-01 11:26 35.45292 134.48347 36734 ft 539 kts 111°
2026-05-01 11:27 35.42563 134.56927 36741 ft 540 kts 110°
2026-05-01 11:27 35.39830 134.65504 36723 ft 541 kts 111°
2026-05-01 11:28 35.37080 134.74106 36726 ft 541 kts 111°
2026-05-01 11:28 35.34323 134.82702 36718 ft 542 kts 111°
2026-05-01 11:29 35.30184 134.95561 36718 ft 543 kts 111°
2026-05-01 11:30 35.26015 135.08458 36705 ft 543 kts 111°
2026-05-01 11:30 35.23229 135.17048 36705 ft 542 kts 111°
2026-05-01 11:31 35.20447 135.25599 36704 ft 541 kts 111°
2026-05-01 11:31 35.17663 135.34136 36699 ft 540 kts 112°
2026-05-01 11:32 35.14883 135.42632 36701 ft 539 kts 112°
2026-05-01 11:32 35.12114 135.51070 36697 ft 538 kts 112°
2026-05-01 11:33 35.09328 135.59541 36700 ft 538 kts 112°
2026-05-01 11:33 35.06534 135.68013 36691 ft 537 kts 112°
2026-05-01 11:34 35.03735 135.76477 36688 ft 537 kts 112°
2026-05-01 11:34 35.01243 135.85080 36683 ft 538 kts 104°
2026-05-01 11:35 34.99749 135.94034 36684 ft 538 kts 100°
2026-05-01 11:35 34.98374 136.03001 36681 ft 539 kts 101°
2026-05-01 11:36 34.96940 136.11988 36671 ft 539 kts 101°
2026-05-01 11:36 34.95714 136.19465 36669 ft 539 kts 102°
2026-05-01 11:37 34.94245 136.28348 36657 ft 539 kts 102°
2026-05-01 11:37 34.92831 136.36889 36653 ft 540 kts 102°
2026-05-01 11:38 34.91342 136.45862 36647 ft 540 kts 102°
2026-05-01 11:38 34.89843 136.54852 36637 ft 542 kts 102°
2026-05-01 11:39 34.88330 136.63873 36641 ft 543 kts 102°
2026-05-01 11:39 34.86810 136.72881 36641 ft 544 kts 102°
2026-05-01 11:40 34.85286 136.81881 36636 ft 544 kts 102°
2026-05-01 11:40 34.83753 136.90901 36635 ft 543 kts 102°
2026-05-01 11:41 34.82433 136.99957 36640 ft 542 kts 98°
2026-05-01 11:41 34.81586 137.07762 36642 ft 541 kts 98°
2026-05-01 11:42 34.80625 137.16834 36646 ft 540 kts 98°
2026-05-01 11:42 34.79624 137.25893 36637 ft 538 kts 98°
2026-05-01 11:43 34.78601 137.34901 36639 ft 537 kts 99°
2026-05-01 11:43 34.77572 137.43901 36642 ft 537 kts 99°
2026-05-01 11:44 34.76024 137.57379 36637 ft 536 kts 99°
2026-05-01 11:44 34.74983 137.66379 36634 ft 537 kts 99°
2026-05-01 11:45 34.74038 137.75374 36630 ft 537 kts 98°
2026-05-01 11:45 34.73221 137.84397 36615 ft 538 kts 98°
2026-05-01 11:46 34.72371 137.93448 36592 ft 538 kts 99°
2026-05-01 11:46 34.71523 138.02447 36567 ft 539 kts 97°
2026-05-01 11:47 34.71359 138.11587 36564 ft 542 kts 91°
2026-05-01 11:47 34.71464 138.20751 36552 ft 543 kts 91°
2026-05-01 11:48 34.71536 138.29937 36560 ft 544 kts 91°
2026-05-01 11:48 34.71560 138.39148 36569 ft 545 kts 92°
2026-05-01 11:49 34.71566 138.48349 36576 ft 545 kts 92°
2026-05-01 11:49 34.71570 138.57569 36590 ft 546 kts 93°
2026-05-01 11:50 34.71569 138.66827 36584 ft 545 kts 93°
2026-05-01 11:50 34.71567 138.71353 36445 ft 542 kts 93°
2026-05-01 11:50 34.71564 138.75927 36096 ft 538 kts 93°
2026-05-01 11:51 34.71558 138.80448 35553 ft 535 kts 93°
2026-05-01 11:51 34.71543 138.85050 35124 ft 552 kts 93°
2026-05-01 11:51 34.71511 138.94306 34588 ft 543 kts 93°
2026-05-01 11:52 34.71488 138.98943 33983 ft 551 kts 94°
2026-05-01 11:52 34.71464 139.03601 33623 ft 554 kts 94°
2026-05-01 11:52 34.71439 139.08297 33421 ft 552 kts 94°
2026-05-01 11:52 34.71416 139.12891 33239 ft 550 kts 94°
2026-05-01 11:53 34.71390 139.17546 33010 ft 550 kts 94°
2026-05-01 11:53 34.71362 139.22202 32726 ft 551 kts 94°
2026-05-01 11:53 34.71332 139.26853 32457 ft 551 kts 94°
2026-05-01 11:53 34.71301 139.31394 32280 ft 550 kts 94°
2026-05-01 11:54 34.71233 139.40638 32200 ft 543 kts 94°
2026-05-01 11:54 34.70968 139.45120 32057 ft 516 kts 107°
2026-05-01 11:54 34.69894 139.49103 31889 ft 475 kts 124°
2026-05-01 11:55 34.68237 139.52367 31693 ft 439 kts 137°
2026-05-01 11:55 34.66234 139.55010 31299 ft 413 kts 148°
2026-05-01 11:55 34.64012 139.57087 30731 ft 393 kts 158°
2026-05-01 11:55 34.61656 139.58624 30041 ft 378 kts 167°
2026-05-01 11:56 34.59225 139.59635 29263 ft 364 kts 177°
2026-05-01 11:56 34.56775 139.60137 28494 ft 349 kts 186°
2026-05-01 11:56 34.54433 139.60167 27836 ft 333 kts 194°
2026-05-01 11:56 34.52200 139.59784 27288 ft 316 kts 201°
2026-05-01 11:57 34.50150 139.59058 26876 ft 297 kts 209°
2026-05-01 11:57 34.48887 139.58413 26610 ft 286 kts 213°
2026-05-01 11:57 34.46691 139.56868 26057 ft 267 kts 221°
2026-05-01 11:57 34.45253 139.55497 25527 ft 259 kts 227°
2026-05-01 11:58 34.43985 139.53973 24961 ft 254 kts 232°
2026-05-01 11:58 34.42886 139.52317 24405 ft 249 kts 238°
2026-05-01 11:58 34.41215 139.48867 23965 ft 239 kts 244°
2026-05-01 11:59 34.40456 139.47035 23756 ft 246 kts 246°
2026-05-01 11:59 34.39795 139.45117 23540 ft 247 kts 253°
2026-05-01 11:59 34.39780 139.42961 23319 ft 277 kts 281°
2026-05-01 12:00 34.42727 139.39189 22876 ft 350 kts 317°
2026-05-01 12:00 34.44981 139.37787 22629 ft 378 kts 328°
2026-05-01 12:00 34.50522 139.36728 22135 ft 432 kts 353°
2026-05-01 12:01 34.53370 139.37072 21892 ft 440 kts
2026-05-01 12:01 34.56472 139.37776 21623 ft 444 kts
2026-05-01 12:01 34.59487 139.38578 21374 ft 444 kts
2026-05-01 12:01 34.62497 139.39352 21111 ft 442 kts
2026-05-01 12:02 34.65515 139.40078 20855 ft 440 kts
2026-05-01 12:02 34.68478 139.40928 20576 ft 443 kts 13°
2026-05-01 12:02 34.71218 139.42745 20325 ft 455 kts 33°
2026-05-01 12:02 34.73434 139.45522 20055 ft 461 kts 54°
2026-05-01 12:03 34.75060 139.48843 19820 ft 456 kts 59°
2026-05-01 12:03 34.76621 139.52194 19577 ft 456 kts 59°
2026-05-01 12:03 34.78193 139.55542 19328 ft 455 kts 59°
2026-05-01 12:03 34.79771 139.58859 19081 ft 454 kts 59°
2026-05-01 12:04 34.81367 139.62173 18844 ft 452 kts 58°
2026-05-01 12:04 34.82966 139.65470 18611 ft 451 kts 58°
2026-05-01 12:04 34.84564 139.68756 18363 ft 449 kts 58°
2026-05-01 12:04 34.86148 139.72013 18120 ft 447 kts 58°
2026-05-01 12:05 34.87731 139.75273 17890 ft 445 kts 58°
2026-05-01 12:05 34.90848 139.81700 17343 ft 439 kts 57°
2026-05-01 12:05 34.92729 139.84548 17032 ft 428 kts 37°
2026-05-01 12:06 34.95200 139.86453 16788 ft 416 kts 17°
2026-05-01 12:06 34.97942 139.87393 16528 ft 403 kts
2026-05-01 12:06 35.00701 139.87596 16271 ft 390 kts 348°
2026-05-01 12:06 35.03314 139.87006 16015 ft 378 kts 337°
2026-05-01 12:07 35.05831 139.86164 15758 ft 371 kts 336°
2026-05-01 12:07 35.08293 139.85328 15489 ft 363 kts 336°
2026-05-01 12:07 35.10704 139.84524 15227 ft 355 kts 336°
2026-05-01 12:07 35.12268 139.84012 15057 ft 350 kts 337°
2026-05-01 12:08 35.15208 139.83064 14730 ft 341 kts 337°
2026-05-01 12:08 35.17487 139.82339 14479 ft 334 kts 337°
2026-05-01 12:08 35.18968 139.81869 14317 ft 330 kts 337°
2026-05-01 12:08 35.21171 139.81210 14046 ft 324 kts 343°
2026-05-01 12:09 35.23463 139.81262 13788 ft 334 kts
2026-05-01 12:09 35.24944 139.81802 13631 ft 338 kts 17°
2026-05-01 12:09 35.25351 139.82022 13581 ft 339 kts 20°
2026-05-01 12:09 35.26145 139.82551 13490 ft 341 kts 27°
2026-05-01 12:10 35.27863 139.84307 13260 ft 343 kts 46°
2026-05-01 12:10 35.29656 139.89535 12708 ft 334 kts 90°
2026-05-01 12:10 35.29404 139.92298 12436 ft 321 kts 112°
2026-05-01 12:11 35.27126 139.96625 11924 ft 291 kts 146°
2026-05-01 12:11 35.25574 139.98124 11647 ft 278 kts 159°
2026-05-01 12:11 35.23853 139.98979 11387 ft 259 kts 176°
2026-05-01 12:12 35.22120 139.99509 11147 ft 258 kts 176°
2026-05-01 12:12 35.20387 140.00056 10908 ft 258 kts 176°
2026-05-01 12:12 35.18671 140.00609 10647 ft 256 kts 175°
2026-05-01 12:12 35.16925 140.01177 10412 ft 255 kts 176°
2026-05-01 12:13 35.15246 140.01715 10161 ft 249 kts 180°
2026-05-01 12:13 35.13609 140.01734 9913 ft 228 kts 200°
2026-05-01 12:13 35.12112 140.01263 9738 ft 218 kts 208°
2026-05-01 12:13 35.10789 140.00578 9630 ft 209 kts 216°
2026-05-01 12:14 35.09564 139.99619 9589 ft 210 kts 225°
2026-05-01 12:14 35.08498 139.98391 9536 ft 210 kts 233°
2026-05-01 12:14 35.07657 139.96951 9513 ft 207 kts 243°
2026-05-01 12:14 35.07086 139.95341 9503 ft 206 kts 253°
2026-05-01 12:15 35.06823 139.93633 9503 ft 205 kts 263°
2026-05-01 12:15 35.06865 139.91885 9498 ft 207 kts 273°
2026-05-01 12:15 35.07206 139.90181 9509 ft 211 kts 283°
2026-05-01 12:15 35.07846 139.88541 9498 ft 217 kts 294°
2026-05-01 12:16 35.08739 139.87033 9499 ft 223 kts 300°
2026-05-01 12:16 35.09789 139.85615 9504 ft 229 kts 307°
2026-05-01 12:16 35.11138 139.84464 9490 ft 247 kts 327°
2026-05-01 12:16 35.12823 139.83864 9503 ft 256 kts 335°
2026-05-01 12:17 35.14553 139.83319 9491 ft 257 kts 334°
2026-05-01 12:17 35.16292 139.82755 9497 ft 259 kts 334°
2026-05-01 12:17 35.18057 139.82316 9469 ft 267 kts 350°
2026-05-01 12:17 35.19923 139.82807 9522 ft 283 kts 16°
2026-05-01 12:18 35.21686 139.83931 9529 ft 287 kts 21°
2026-05-01 12:18 35.23439 139.85134 9528 ft 289 kts 22°
2026-05-01 12:18 35.25168 139.86329 9528 ft 290 kts 22°
2026-05-01 12:18 35.26922 139.87547 9531 ft 291 kts 22°
2026-05-01 12:19 35.28691 139.88779 9531 ft 291 kts 22°
2026-05-01 12:19 35.30458 139.90006 9530 ft 295 kts 22°
2026-05-01 12:19 35.32261 139.91252 9446 ft 300 kts 22°
2026-05-01 12:19 35.34088 139.92510 9157 ft 300 kts 22°
2026-05-01 12:20 35.35902 139.93760 8838 ft 299 kts 22°
2026-05-01 12:20 35.37702 139.95002 8527 ft 297 kts 22°
2026-05-01 12:20 35.39508 139.96249 8219 ft 296 kts 22°
2026-05-01 12:20 35.41295 139.97483 7921 ft 294 kts 22°
2026-05-01 12:21 35.43059 139.98702 7705 ft 289 kts 22°
2026-05-01 12:21 35.44793 139.99903 7477 ft 284 kts 22°
2026-05-01 12:21 35.46501 140.01089 7285 ft 279 kts 22°
2026-05-01 12:21 35.48172 140.02253 7070 ft 275 kts 22°
2026-05-01 12:22 35.49812 140.03399 6943 ft 267 kts 22°
2026-05-01 12:22 35.51423 140.04528 6740 ft 269 kts 22°
2026-05-01 12:22 35.53060 140.05669 6448 ft 270 kts 22°
2026-05-01 12:22 35.54662 140.06790 6155 ft 267 kts 22°
2026-05-01 12:23 35.56295 140.07934 5863 ft 266 kts 22°
2026-05-01 12:23 35.57905 140.09054 5564 ft 265 kts 22°
2026-05-01 12:23 35.59506 140.10166 5262 ft 264 kts 22°
2026-05-01 12:23 35.61074 140.11252 4949 ft 261 kts 22°
2026-05-01 12:24 35.62632 140.12342 4627 ft 254 kts 22°
2026-05-01 12:24 35.64141 140.13414 4314 ft 246 kts 22°
2026-05-01 12:24 35.65603 140.14461 4000 ft 241 kts 22°
2026-05-01 12:24 35.67034 140.15478 3830 ft 238 kts 19°
2026-05-01 12:25 35.68504 140.15875 3805 ft 201 kts 337°
2026-05-01 12:25 35.69643 140.13639 3710 ft 167 kts 273°
2026-05-01 12:25 35.70189 140.12317 3527 ft 186 kts 305°
2026-05-01 12:26 35.71097 140.11111 3311 ft 198 kts 305°
2026-05-01 12:26 35.72652 140.08563 2984 ft 182 kts 281°
2026-05-01 12:26 35.72817 140.07047 2935 ft 174 kts 268°
2026-05-01 12:27 35.72845 140.05562 2887 ft 174 kts 266°
2026-05-01 12:27 35.71485 140.02915 2904 ft 202 kts 231°
2026-05-01 12:28 35.69504 140.00465 2878 ft 195 kts 229°
2026-05-01 12:28 35.68557 139.99340 2874 ft 182 kts 230°
2026-05-01 12:28 35.66914 139.97390 2867 ft 143 kts 232°
2026-05-01 12:29 35.66268 139.96624 2864 ft 123 kts 233°
2026-05-01 12:29 35.65639 139.95867 2896 ft 133 kts 232°
2026-05-01 12:29 35.64296 139.94270 2815 ft 135 kts 231°
2026-05-01 12:30 35.63283 139.93067 2564 ft 129 kts 231°
2026-05-01 12:30 35.62617 139.92274 2397 ft 125 kts 230°
2026-05-01 12:30 35.62005 139.91534 2166 ft 125 kts 231°
2026-05-01 12:31 35.61403 139.90744 1968 ft 126 kts 231°
2026-05-01 12:31 35.60833 139.89945 1805 ft 124 kts 232°
2026-05-01 12:31 35.60308 139.89117 1622 ft 121 kts 233°
2026-05-01 12:31 35.59731 139.88368 1509 ft 121 kts 224°
2026-05-01 12:32 35.59056 139.87741 1495 ft 125 kts 220°
2026-05-01 12:32 35.57792 139.86438 1145 ft 129 kts 223°
2026-05-01 12:32 35.57143 139.85717 828 ft 125 kts 223°
2026-05-01 12:33 35.56508 139.85017 560 ft 123 kts 224°
2026-05-01 12:33 35.55852 139.84274 376 ft 131 kts 225°
2026-05-01 12:33 35.55164 139.83498 303 ft 138 kts 226°
2026-05-01 12:33 35.54581 139.82800 172 ft 131 kts 224°
2026-05-01 12:34 35.53973 139.82120 31 ft 114 kts 226°
2026-05-01 12:34 35.53528 139.81572 29 ft 52 kts 223°
2026-05-01 12:34 35.53411 139.81456 29 ft 18 kts 218°
2026-05-01 12:34 35.53293 139.81340 28 ft 26 kts 220°
2026-05-01 12:35 35.53118 139.81147 29 ft 42 kts 222°
2026-05-01 12:35 35.52973 139.80938 29 ft 26 kts 239°
2026-05-01 12:35 35.52926 139.80817 28 ft 16 kts 247°
2026-05-01 12:35 35.52916 139.80786 28 ft 1 kts 247°
2026-05-01 12:36 35.52915 139.80784 28 ft 1 kts 247°
2026-05-01 12:36 35.52912 139.80777 28 ft 1 kts 247°
2026-05-01 12:36 35.52908 139.80765 28 ft 2 kts 248°
2026-05-01 12:36 35.52904 139.80751 28 ft 2 kts 248°
2026-05-01 12:37 35.52898 139.80734 28 ft 2 kts 249°
2026-05-01 12:37 35.52892 139.80713 28 ft 3 kts 251°
2026-05-01 12:37 35.52887 139.80689 28 ft 3 kts 258°
2026-05-01 12:37 35.52887 139.80663 28 ft 3 kts 271°
2026-05-01 12:38 35.52891 139.80634 28 ft 4 kts 288°
2026-05-01 12:38 35.52905 139.80608 28 ft 0 kts 308°
2026-05-01 12:38 35.52908 139.80604 28 ft 1 kts 309°
2026-05-01 12:38 35.52916 139.80594 28 ft 2 kts 315°
2026-05-01 12:39 35.52934 139.80576 28 ft 5 kts 323°
2026-05-01 12:39 35.52971 139.80546 28 ft 8 kts 329°
2026-05-01 12:39 35.53026 139.80508 28 ft 11 kts 332°
2026-05-01 12:39 35.53099 139.80460 28 ft 13 kts 329°
2026-05-01 12:40 35.53184 139.80397 28 ft 15 kts 329°
2026-05-01 12:40 35.53281 139.80327 28 ft 17 kts 328°
2026-05-01 12:40 35.53390 139.80251 28 ft 19 kts 330°
2026-05-01 12:40 35.53509 139.80166 28 ft 18 kts 330°
2026-05-01 12:41 35.53615 139.80089 28 ft 18 kts 330°
2026-05-01 12:41 35.53701 139.80013 28 ft 13 kts 305°
2026-05-01 12:41 35.53708 139.79977 28 ft 4 kts 269°
2026-05-01 12:41 35.53700 139.79947 28 ft 4 kts 249°
2026-05-01 12:42 35.53684 139.79908 28 ft 7 kts 240°
2026-05-01 12:42 35.53655 139.79846 28 ft 10 kts 239°
2026-05-01 12:42 35.53622 139.79776 28 ft 13 kts 240°
2026-05-01 12:42 35.53577 139.79683 28 ft 15 kts 238°
2026-05-01 12:43 35.53540 139.79608 28 ft 9 kts 238°
2026-05-01 12:43 35.53505 139.79531 28 ft 12 kts 240°
2026-05-01 12:43 35.53456 139.79426 28 ft 17 kts 238°
2026-05-01 12:43 35.53391 139.79289 28 ft 13 kts 243°
2026-05-01 12:44 35.53386 139.79170 28 ft 16 kts 296°
2026-05-01 12:44 35.53487 139.79075 28 ft 21 kts 332°
2026-05-01 12:44 35.53729 139.78902 27 ft 17 kts 331°
2026-05-01 12:45 35.53930 139.78756 28 ft 17 kts 329°
2026-05-01 12:45 35.54029 139.78678 28 ft 17 kts 328°
2026-05-01 12:45 35.54097 139.78636 28 ft 0 kts 332°
2026-05-01 12:46 35.54102 139.78633 28 ft 1 kts 332°
2026-05-01 12:46 35.54103 139.78632 28 ft 0 kts 332°
2026-05-01 12:46 35.54105 139.78631 28 ft 1 kts 332°
2026-05-01 12:46 35.54106 139.78630 28 ft 0 kts 332°
2026-05-01 12:49 35.54118 139.78623 28 ft 5 kts 332°
2026-05-01 12:49 35.54170 139.78561 27 ft 10 kts 288°
2026-05-01 12:50 35.54152 139.78475 28 ft 12 kts 238°
2026-05-01 12:50 35.54121 139.78412 28 ft 11 kts 239°
2026-05-01 12:50 35.54113 139.78395 28 ft 0 kts 239°
2026-05-01 12:54 35.54109 139.78385 27 ft 6 kts 239°
2026-05-01 12:54 35.54004 139.78163 28 ft 17 kts 241°
2026-05-01 12:54 35.53950 139.78024 28 ft 16 kts 265°
2026-05-01 12:55 35.54205 139.77796 28 ft 16 kts 330°
2026-05-01 12:55 35.54315 139.77719 28 ft 16 kts 330°
2026-05-01 12:55 35.54407 139.77653 28 ft 14 kts 329°
2026-05-01 12:56 35.54450 139.77620 28 ft 5 kts 329°
2026-05-01 12:56 35.54485 139.77595 28 ft 6 kts 331°
2026-05-01 12:56 35.54527 139.77567 28 ft 7 kts 331°
2026-05-01 12:56 35.54576 139.77533 28 ft 9 kts 330°
2026-05-01 12:57 35.54632 139.77493 28 ft 10 kts 330°
2026-05-01 12:57 35.54760 139.77402 28 ft 12 kts 329°
2026-05-01 12:57 35.54811 139.77348 28 ft 9 kts 299°
2026-05-01 12:58 35.54812 139.77271 28 ft 10 kts 251°
2026-05-01 12:58 35.54782 139.77199 28 ft 10 kts 239°
2026-05-01 12:58 35.54749 139.77127 28 ft 10 kts 246°
2026-05-01 12:59 35.54789 139.77011 28 ft 6 kts 315°
2026-05-01 12:59 35.54793 139.77001 28 ft 1 kts 297°
2026-05-01 12:59 35.54795 139.76982 28 ft 2 kts 272°
2026-05-01 13:00 35.54785 139.76936 28 ft 3 kts 246°
2026-05-01 13:00 35.54784 139.76932 28 ft 1 kts 245°
2026-05-01 13:01 35.54770 139.76905 27 ft 3 kts 239°
2026-05-01 13:01 35.54765 139.76894 27 ft 0 kts 240°
2026-05-01 13:01 35.54764 139.76893 27 ft 0 kts 240°